Le nostre stazioni meteo in Italia

Pubblicità
Il mio iltempo24.it
Geneve-Cointrin, Svizzera (6700): Temperatura & dewpoint: 19.01.2020 07:00:00 - 25.01.2020 07:00:00 (CET)Geneve-Cointrin, Svizzera (6700): Temperatura 5cm: 19.01.2020 07:00:00 - 25.01.2020 07:00:00 (CET)Geneve-Cointrin, Svizzera (6700): water temperature: 19.01.2020 07:00:00 - 25.01.2020 07:00:00 (CET)Geneve-Cointrin, Svizzera (6700): velocità del vento & gusts: 19.01.2020 07:00:00 - 25.01.2020 07:00:00 (CET)Geneve-Cointrin, Svizzera (6700): direzione del vento: 19.01.2020 07:00:00 - 25.01.2020 07:00:00 (CET)Geneve-Cointrin, Svizzera (6700): reduced air pressure: 19.01.2020 07:00:00 - 25.01.2020 07:00:00 (CET)Geneve-Cointrin, Svizzera (6700): visibility: 19.01.2020 07:00:00 - 25.01.2020 07:00:00 (CET)Geneve-Cointrin, Svizzera (6700): ore di luce: 19.01.2020 07:00:00 - 25.01.2020 07:00:00 (CET)Geneve-Cointrin, Svizzera (6700): precipitazioni: 19.01.2020 07:00:00 - 25.01.2020 07:00:00 (CET)
Data & Tempo tt [°C] td [°C] tt 5cm [°C] tw [°C] ff [km/h] ff [kn] fx [km/h] fx [kn] dd ppp [hPa] vv [km] sd [min] rr [mm]
25.01.2020 07:00:00 - - - - - - - - - - - - -
25.01.2020 06:00:00 1,1 0,6 0,9 - 2 1 12 6 NO 1024,8 - 0 0,0
25.01.2020 05:00:00 1,1 0,5 0,9 - 2 1 13 7 NO 1024,7 - 0 0,0
25.01.2020 04:00:00 1,2 0,8 1,0 - 5 3 8 5 NO 1025,0 - 0 0,0
25.01.2020 03:00:00 1,5 0,9 1,1 - 4 2 13 7 O 1025,2 - 0 0,0
25.01.2020 02:00:00 1,5 0,7 1,2 - 1 1 8 4 SSO 1025,2 - 0 0,0
25.01.2020 01:00:00 1,9 0,9 1,4 - 2 1 12 6 O 1025,4 - 0 0,0
25.01.2020 00:00:00 1,6 0,9 1,1 - 1 1 12 7 O 1025,7 - 0 0,0
24.01.2020 23:00:00 1,6 0,9 1,2 - 2 1 5 3 ENE 1025,9 - 0 0,0
24.01.2020 22:00:00 1,6 0,8 1,3 - 4 2 13 7 ENE 1026,0 4,0 0 0,0
24.01.2020 21:00:00 1,8 0,9 1,4 - 3 2 8 4 E 1026,0 - 0 0,0
24.01.2020 20:00:00 1,8 1,0 1,6 - 5 3 9 5 E 1026,0 - 0 0,0
24.01.2020 19:00:00 1,9 0,8 1,5 - 3 1 11 6 ONO 1025,6 4,5 0 0,0
24.01.2020 18:00:00 1,9 0,8 1,5 - 3 2 13 7 NNO 1025,5 - 0 0,0
24.01.2020 17:00:00 2,0 0,7 1,9 - 2 1 13 7 NNE 1025,6 - 0 0,0
24.01.2020 16:00:00 1,9 0,6 2,1 - 3 1 13 7 SO 1025,7 4,0 0 0,0
24.01.2020 15:00:00 2,1 0,9 2,2 - 3 2 13 7 NO 1025,9 - 0 0,0
24.01.2020 14:00:00 1,5 0,5 2,0 - 5 3 12 7 NNE 1026,8 - 0 0,0
24.01.2020 13:00:00 1,3 0,7 1,8 8,0 4 2 9 5 NNE 1027,3 2,5 0 0,0
24.01.2020 12:00:00 1,1 0,7 1,6 - 3 2 13 7 N 1028,0 - 0 0,0
24.01.2020 11:00:00 0,8 0,6 1,3 - 3 2 13 7 N 1028,5 - 0 0,0
24.01.2020 10:00:00 0,3 0,3 0,3 - 2 1 13 7 N 1028,6 0,4 0 0,0
24.01.2020 09:00:00 -0,2 -0,2 -0,3 - 1 0 5 3 SO 1028,9 - 0 0,0
24.01.2020 08:00:00 -0,2 -0,4 -0,6 - 3 2 10 6 O 1028,8 - 0 0,0
24.01.2020 07:00:00 -0,2 -0,7 -0,8 - 6 3 11 6 O 1028,7 0,7 0 0,0
24.01.2020 06:00:00 -0,8 -0,9 -0,8 - 4 2 13 7 N 1028,7 - 0 0,0
24.01.2020 05:00:00 -0,6 -0,9 -0,8 - 3 2 13 7 ONO 1029,0 - 0 0,0
24.01.2020 04:00:00 -0,4 -0,8 -0,6 - 5 3 8 5 ONO 1029,2 - 0 0,0
24.01.2020 03:00:00 -0,4 -0,8 -0,6 - 4 2 13 7 ONO 1029,5 - 0 0,0
24.01.2020 02:00:00 -0,5 -0,8 -0,6 - 3 1 11 6 ESE 1029,7 - 0 0,0
24.01.2020 01:00:00 -0,3 -1,0 -0,6 - 2 1 12 7 SO 1029,8 - 0 0,0
24.01.2020 00:00:00 -0,4 -1,0 -0,5 - 4 2 9 5 E 1030,3 - 0 0,0
23.01.2020 23:00:00 0,2 -0,8 -0,2 - 3 2 13 7 NE 1030,1 - 0 0,0
23.01.2020 22:00:00 0,2 -0,9 -0,2 - 5 3 11 6 E 1030,0 4,0 0 0,0
23.01.2020 21:00:00 0,5 -0,9 -0,1 - 4 2 12 6 O 1029,8 - 0 0,0
23.01.2020 20:00:00 0,4 -0,9 -0,1 - 3 2 11 6 ESE 1029,6 - 0 0,0
23.01.2020 19:00:00 0,5 -0,9 0,1 - 6 3 9 5 N 1029,1 5 0 0,0
23.01.2020 18:00:00 0,7 -1,0 0,2 - 5 3 13 7 NNE 1028,7 - 0 0,0
23.01.2020 17:00:00 0,6 -1,3 0,4 - 4 2 11 6 NO 1028,4 - 0 0,0
23.01.2020 16:00:00 0,8 -1,1 1,2 - 3 1 13 7 SO 1028,6 5 0 0,0
23.01.2020 15:00:00 0,6 -1,0 0,9 - 3 2 11 6 NNO 1028,9 - 0 0,0
23.01.2020 14:00:00 0,6 -1,2 1,0 - 3 2 11 6 N 1029,6 - 0 0,0
23.01.2020 13:00:00 0,2 -1,5 0,7 - 5 3 14 7 ENE 1030,3 5 0 0,0
23.01.2020 12:00:00 0,2 -1,3 0,1 - 9 5 17 9 ENE 1030,6 - 0 0,0
23.01.2020 11:00:00 0,2 -1,1 0,2 - 9 5 18 10 NE 1031,4 - 0 0,0
23.01.2020 10:00:00 0,2 -0,8 -0,1 - 9 5 20 11 ENE 1031,4 3,0 0 0,0
23.01.2020 09:00:00 0,1 -0,9 -0,4 - 10 6 17 9 NE 1031,7 - 0 0,0
23.01.2020 08:00:00 -0,4 -1,0 -0,9 - 7 4 14 7 NE 1031,3 - 0 0,0
23.01.2020 07:00:00 -1,7 -2,1 -2,2 - 4 2 12 7 NNO 1031,4 75 0 0,0
23.01.2020 06:00:00 -4,4 -5,4 -6,9 - 3 2 4 2 NNO 1031,8 - 0 0,0
23.01.2020 05:00:00 -3,5 -4,3 -7,0 - 1 1 7 4 SO 1032,1 - 0 0,0
23.01.2020 04:00:00 -3,3 -3,9 -6,4 - 3 2 8 4 OSO 1032,8 - 0 0,0
23.01.2020 03:00:00 -2,7 -3,8 -6,3 - 3 2 6 4 O 1033,6 - 0 0,0
23.01.2020 02:00:00 -3,3 -3,7 -5,5 - 3 1 6 3 OSO 1034,0 - 0 0,0
23.01.2020 01:00:00 -2,3 -3,4 -5,3 - 5 3 7 4 OSO 1034,1 - 0 0,0
23.01.2020 00:00:00 -2,7 -3,5 -5,4 - 2 1 4 2 NO 1034,3 - 0 0,0
22.01.2020 23:00:00 -2,4 -2,9 -5,5 - 3 2 10 5 ONO 1034,2 - 0 0,0
22.01.2020 22:00:00 -1,5 -2,4 -4,9 - 1 0 13 7 NNE 1034,0 7 0 0,0
22.01.2020 21:00:00 -1,2 -2,4 -4,4 - 2 1 4 2 OSO 1034,0 - 0 0,0
22.01.2020 20:00:00 -0,5 -1,9 -3,9 - 2 1 10 6 O 1034,0 - 0 0,0
22.01.2020 19:00:00 0,1 -1,6 -3,4 - 2 1 5 3 ONO 1033,7 8 0 0,0
22.01.2020 18:00:00 1,4 -2,3 -2,5 - 2 1 5 3 NE 1033,0 - 0 0,0
22.01.2020 17:00:00 3,8 -0,8 0,6 - 5 3 6 3 ENE 1032,6 - 0 0,0
22.01.2020 16:00:00 5,0 -0,9 5,0 - 3 1 20 11 NE 1032,5 9 56 0,0
22.01.2020 15:00:00 4,7 -1,1 4,6 - 5 3 13 7 E 1032,7 - 60 0,0
22.01.2020 14:00:00 4,5 -0,2 4,7 - 3 1 12 6 ESE 1033,4 - 60 0,0
22.01.2020 13:00:00 3,3 -0,3 5,4 - 2 1 11 6 NNE 1034,5 9 60 0,0
22.01.2020 12:00:00 2,3 -0,7 3,7 - 4 2 13 7 E 1035,0 - 47 0,0
22.01.2020 11:00:00 1,2 -1,5 1,7 - 1 1 13 7 E 1035,5 - 60 0,0
22.01.2020 10:00:00 -0,4 -2,3 -0,7 - 4 2 8 4 SO 1036,0 12 50 0,0
22.01.2020 09:00:00 -3,7 -4,6 -5,5 - 2 1 11 6 O 1036,7 - 0 0,0
22.01.2020 08:00:00 -3,9 -4,7 -6,6 - 2 1 11 6 NO 1036,8 - 0 0,0
22.01.2020 07:00:00 -3,4 -4,3 -6,2 - 2 1 13 7 O 1036,7 9 0 0,0
22.01.2020 06:00:00 -2,8 -3,6 -5,0 - 4 2 5 3 O 1036,7 - 0 0,0
22.01.2020 05:00:00 -2,1 -3,3 -4,3 - 2 1 5 3 NO 1036,7 - 0 0,0
22.01.2020 04:00:00 -1,6 -3,2 -3,4 - 3 1 6 4 OSO 1036,9 - 0 0,0
22.01.2020 03:00:00 -1,8 -3,3 -3,6 - 2 1 10 5 O 1037,6 - 0 0,0
22.01.2020 02:00:00 -1,9 -3,2 -4,2 - 2 1 5 3 OSO 1037,7 - 0 0,0
22.01.2020 01:00:00 -2,0 -3,2 -4,1 - 2 1 6 3 NO 1038,1 - 0 0,0
22.01.2020 00:00:00 -1,8 -3,3 -4,2 - 3 1 11 6 O 1038,6 - 0 0,0
21.01.2020 23:00:00 -2,0 -3,5 -4,9 - 4 2 8 4 NO 1038,5 - 0 0,0
21.01.2020 22:00:00 -2,1 -3,4 -5,0 - 3 2 13 7 O 1038,7 9 0 0,0
21.01.2020 21:00:00 -0,7 -2,9 -4,4 - 3 2 13 7 O 1038,6 - 0 0,0
21.01.2020 20:00:00 -0,4 -2,8 -3,4 - 2 1 6 4 NNO 1038,3 - 0 0,0
21.01.2020 19:00:00 0,5 -2,7 -3,0 - 3 1 7 4 NO 1038,0 14 0 0,0
21.01.2020 18:00:00 2,2 -2,2 -2,2 - 2 1 8 4 NE 1037,6 - 0 0,0
21.01.2020 17:00:00 3,4 -1,9 0,0 - 6 3 8 5 NNE 1037,5 - 15 0,0
21.01.2020 16:00:00 4,2 -2,5 5,5 - 5 3 14 7 NNE 1037,9 16 59 0,0
21.01.2020 15:00:00 4,3 -3,3 4,9 - 10 5 14 8 NNE 1038,2 - 60 0,0
21.01.2020 14:00:00 4,2 -2,7 4,0 - 6 3 18 10 ENE 1039,1 - 60 0,0
21.01.2020 13:00:00 3,1 -2,4 5,2 - 11 6 18 10 NE 1040,0 16 60 0,0
21.01.2020 12:00:00 1,9 -2,4 4,2 - 10 5 18 10 E 1041,3 - 60 0,0
21.01.2020 11:00:00 1,6 -2,4 3,2 - 10 5 15 8 E 1041,8 - 60 0,0
21.01.2020 10:00:00 0,7 -2,5 1,5 - 2 1 13 7 N 1042,1 18 49 0,0
21.01.2020 09:00:00 -2,7 -4,6 -3,8 - 2 1 11 6 OSO 1043,0 - 0 0,0
21.01.2020 08:00:00 -3,0 -4,6 -5,7 - 5 3 13 7 N 1042,8 - 0 0,0
21.01.2020 07:00:00 -2,1 -4,4 -4,1 - 4 2 12 7 N 1042,6 18 0 0,0
21.01.2020 06:00:00 -0,3 -3,5 -2,9 - 9 5 16 8 NNE 1042,0 - 0 0,0
21.01.2020 05:00:00 -1,8 -4,3 -5,5 - 4 2 11 6 N 1041,9 - 0 0,0
21.01.2020 04:00:00 -1,2 -3,8 -4,1 - 5 3 15 8 N 1042,1 - 0 0,0
21.01.2020 03:00:00 0,5 -2,8 -1,4 - 6 3 30 16 N 1042,0 - 0 0,0
21.01.2020 02:00:00 -0,4 -3,7 -3,3 - 7 4 16 8 N 1041,9 - 0 0,0
21.01.2020 01:00:00 0,8 -3,6 -0,7 - 8 4 15 8 N 1041,7 - 0 0,0
21.01.2020 00:00:00 0,2 -4,0 -1,3 - 9 5 21 11 N 1042,1 - 0 0,0
20.01.2020 23:00:00 0,3 -4,3 -1,8 - 10 6 23 12 N 1041,4 - 0 0,0
20.01.2020 22:00:00 0,6 -4,6 -1,2 - 12 6 23 12 NNE 1041,0 18 0 0,0
20.01.2020 21:00:00 1,5 -4,9 -0,2 - 12 7 25 14 NNE 1040,8 - 0 0,0
20.01.2020 20:00:00 1,2 -4,9 -0,6 - 13 7 26 14 NNE 1040,6 - 0 0,0
20.01.2020 19:00:00 1,9 -5,0 -0,2 - 13 7 25 14 NNE 1040,5 18 0 0,0
20.01.2020 18:00:00 2,2 -4,7 -0,1 - 14 8 32 17 N 1040,1 - 0 0,0
20.01.2020 17:00:00 3,2 -4,1 2,0 - 15 8 36 19 NNE 1040,0 - 54 0,0
20.01.2020 16:00:00 4,0 -4,1 4,0 - 22 12 39 21 NNE 1039,6 30 60 0,0
20.01.2020 15:00:00 4,3 -4,9 4,0 - 23 13 42 23 NNE 1039,5 - 60 0,0
20.01.2020 14:00:00 4,2 -4,6 3,8 - 24 13 41 22 NE 1039,8 - 60 0,0
20.01.2020 13:00:00 3,6 -4,9 4,8 - 25 14 41 22 NE 1040,4 60 60 0,0
20.01.2020 12:00:00 3,4 -4,5 4,2 - 25 13 43 23 NNE 1040,7 - 60 0,0
20.01.2020 11:00:00 2,5 -4,8 3,2 - 26 14 42 23 NE 1041,1 - 44 0,0
20.01.2020 10:00:00 1,6 -4,1 1,1 - 18 10 37 20 NNE 1041,0 60 0 0,0
20.01.2020 09:00:00 1,4 -3,6 0,6 - 16 8 47 26 NNE 1040,8 - 0 0,0
20.01.2020 08:00:00 1,5 -3,5 0,6 - 26 14 49 27 NNE 1040,1 - 0 0,0
20.01.2020 07:00:00 1,5 -3,3 0,7 - 28 15 52 28 NE 1039,3 40 0 0,0
20.01.2020 06:00:00 1,7 -3,7 0,5 - 29 16 49 26 NE 1038,8 - 0 0,0
20.01.2020 05:00:00 1,5 -3,6 0,3 - 29 16 51 27 NNE 1038,5 - 0 0,0
20.01.2020 04:00:00 1,6 -3,2 0,1 - 26 14 49 26 NNE 1038,2 - 0 0,0
20.01.2020 03:00:00 1,7 -3,2 0,2 - 28 15 53 29 NNE 1038,7 - 0 0,0
20.01.2020 02:00:00 1,7 -3,0 0,6 - 27 14 56 31 NNE 1038,3 - 0 0,0
20.01.2020 01:00:00 1,9 -3,0 0,5 - 30 16 59 32 NNE 1037,8 - 0 0,0
20.01.2020 00:00:00 1,8 -3,5 0,4 - 31 17 54 29 NNE 1037,5 - 0 0,0
19.01.2020 23:00:00 2,2 -2,4 0,8 - 31 17 57 31 NNE 1037,0 - 0 0,0
19.01.2020 22:00:00 2,6 -3,4 1,1 - 38 20 66 35 NNE 1036,7 40 0 0,0
19.01.2020 21:00:00 2,8 -4,0 1,1 - 39 21 75 40 NNE 1035,9 - 0 0,0
19.01.2020 20:00:00 2,6 -3,6 1,3 - 32 17 60 33 NNE 1035,5 - 0 0,0
19.01.2020 19:00:00 3,0 -4,1 1,6 - 31 17 55 30 NNE 1035,3 50 0 0,0
19.01.2020 18:00:00 3,2 -4,3 1,4 - 28 15 51 27 NNE 1034,6 - 0 0,0
19.01.2020 17:00:00 4,1 -4,9 2,4 - 28 15 53 28 NNE 1033,9 - 48 0,0
19.01.2020 16:00:00 5,0 -5,1 4,8 - 33 18 61 33 NNE 1033,2 60 60 0,0
19.01.2020 15:00:00 5,4 -4,7 4,8 - 35 19 62 34 NNE 1032,7 - 60 0,0
19.01.2020 14:00:00 5,6 -5,7 4,8 - 32 18 61 33 NNE 1032,4 - 60 0,0
19.01.2020 13:00:00 5,2 -4,6 5,6 - 32 18 61 33 NNE 1032,6 60 60 0,0
19.01.2020 12:00:00 4,7 -4,2 5,1 - 39 21 64 34 NNE 1032,8 - 60 0,0
19.01.2020 11:00:00 3,8 -3,9 3,8 - 35 19 69 38 NNE 1032,4 - 60 0,0
19.01.2020 10:00:00 3,1 -3,9 2,2 - 37 20 59 32 NNE 1031,9 50 48 0,0
19.01.2020 09:00:00 2,5 -3,4 1,1 - 31 17 56 30 NNE 1031,2 - 0 0,0
19.01.2020 08:00:00 2,8 -3,4 1,2 - 28 15 46 25 NNE 1030,6 - 0 0,0
19.01.2020 07:00:00 2,8 -3,0 1,3 - 25 13 43 23 NNE 1030,5 40 0 0,0

tt = Temperatura
td = dewpoint
tt 5cm = Temperatura 5cm
tw = water temperature
ff = velocità del vento
fx = gusts
dd = direzione del vento
ppp = reduced air pressure
vv = visibility
sd = ore di luce
rr = precipitazioni

Stazioni seguenti

WeatherPro
AMSI
MeteoEarth